Flag for Russia Weather past 2 weeks in Barnaul, Russia

23 °F

Passing clouds.

Feels Like: 16 °F
Forecast: 26 / 35 °F
Wind: 6 mph from South

Location: Barnaul Airport

Current Time: Nov 28, 2015 at 10:21:55 AM

Latest Report: Nov 28, 2015 at 9:30 AM

Visibility: N/A

Pressure: 29.98 "Hg

Humidity: 100%

Dew point: 23 °F

Location of BarnaulLocation

Historic Weather in Barnaul — Graph


Barnaul temperature yesterday

Maximum temperature yesterday: 28 °F (at 12:00 AM)
Minimum temperature yesterday: 28 °F (at 12:00 AM)
Average temperature yesterday: 28 °F

Past Weeks' High & Low Weather Summary

High36 °F (Nov 25, 7:00 AM)100% (Nov 26, 12:00 PM)30.77 "Hg (Nov 26, 12:00 PM)
Low-9 °F (Nov 19, 5:30 AM)53% (Nov 15, 3:00 PM)29.98 "Hg (Nov 28, 8:30 AM)
Average11 °F77%30.34 "Hg
* Reported Nov 13 9:00 AM — Nov 28 9:00 AM, Barnaul, Weather by CustomWeather, © 2015

Note: Actual official high and low records may vary slightly from our data, if they occured in-between our weather recording intervals... More about our weather records


Barnaul weather history for previous 24 hours

Time TempWeatherWind HumidityBarometerVisibility
9:00 AM
Sat, Nov 28
25 °FIce fog.6 mph93%29.98 "Hg4 mi
8:30 AM25 °FIce fog.8 mph100%29.98 "Hg0 mi
8:00 AM25 °FCold.6 mph100%30.01 "Hg0 mi
7:30 AM27 °FIce fog.6 mph93%30.01 "Hg0 mi
6:00 AM28 °FPartly cloudy.6 mph93%30.04 "HgN/A
5:30 AM28 °FPassing clouds.6 mph93%30.04 "HgN/A
5:00 AM28 °FPassing clouds.6 mph93%30.04 "HgN/A
4:30 AM28 °FPassing clouds.6 mph100%30.04 "HgN/A
4:00 AM28 °FPassing clouds.8 mph100%30.07 "HgN/A
3:30 AM28 °FPassing clouds.8 mph100%30.07 "HgN/A
3:00 AM28 °FPassing clouds.6 mph100%30.07 "Hg6 mi
2:30 AM28 °FIce fog.3 mph93%30.07 "Hg1 mi
2:00 AM28 °FChilly.6 mph93%30.07 "Hg1 mi
1:30 AM28 °FChilly.6 mph93%30.09 "Hg1 mi
1:00 AM28 °FChilly.6 mph93%30.09 "Hg1 mi
12:30 AM28 °FIce fog.3 mph93%30.09 "Hg1 mi
12:00 AM28 °FPassing clouds.6 mph93%30.09 "Hg4 mi
11:30 PM
Fri, Nov 27
28 °FPassing clouds.3 mph93%30.09 "HgN/A
11:00 PM28 °FPassing clouds.3 mph93%30.09 "HgN/A
10:30 PM28 °FPassing clouds.3 mph93%30.12 "HgN/A
10:00 PM28 °FPassing clouds.3 mph93%30.12 "HgN/A
9:30 PM28 °FOvercast.3 mph93%30.12 "HgN/A
9:00 PM28 °FLow clouds.3 mph93%30.12 "Hg6 mi
8:30 PM28 °FLow clouds.1 mph93%30.12 "HgN/A
8:00 PM28 °FLow clouds.1 mph93%30.12 "HgN/A
7:30 PM28 °FLow clouds.1 mph93%30.12 "HgN/A
7:00 PM28 °FLow clouds.3 mph93%30.12 "HgN/A
6:30 PM28 °FLow clouds.3 mph93%30.12 "HgN/A
6:00 PM28 °FLow clouds.6 mph93%30.12 "HgN/A
5:30 PM28 °FLow clouds.3 mph93%30.12 "HgN/A
5:00 PM28 °FLow clouds.3 mph100%30.12 "HgN/A
4:30 PM28 °FLow clouds.3 mph93%30.12 "HgN/A
4:00 PM28 °FLight snow. Low clouds.6 mph93%30.12 "HgN/A
3:30 PM28 °FLight snow. Low clouds.8 mph93%30.09 "HgN/A
3:00 PM28 °FLight snow. Low clouds.6 mph100%30.09 "HgN/A
2:30 PM28 °FLight snow. Low clouds.10 mph100%30.09 "HgN/A
2:00 PM28 °FLight snow. Low clouds.10 mph100%30.09 "HgN/A
12:30 PM28 °FLight snow. Partly sunny.10 mph100%30.07 "HgN/A
12:00 PM28 °FLight snow. Partly sunny.10 mph100%30.07 "HgN/A
11:30 AM28 °FLight snow. Low clouds.10 mph100%30.07 "HgN/A
11:00 AM28 °FLight snow. Low clouds.8 mph100%30.07 "HgN/A
10:30 AM28 °FLight snow. Low clouds.8 mph93%30.07 "Hg6 mi
10:00 AM28 °FLight snow. Overcast.8 mph93%30.07 "Hg4 mi
Weather by CustomWeather, © 2015

See weather overviewHow to use our weather pages